This is the latest recevied weather packets stored in our database for station/object HJ3GNC-11. If no packets are shown the sender has not sent any weather packets the latest 10 day(s).
| Time | Temp. | Humidity | Pressure | Rain* | Wind** | Luminosity | Snow |
|---|---|---|---|---|---|---|---|
| 1778041739 | 11.67° C | 92% | 1021 hPa | 0 mm | - | - | - |
| 1778040792 | 11.67° C | 92% | 1021 hPa | 0 mm | - | - | - |
| 1778039841 | 11.67° C | 92% | 1021 hPa | 0 mm | - | - | - |
| 1778038891 | 11.67° C | 91% | 1021 hPa | 0 mm | - | - | - |
| 1778037930 | 12.22° C | 88% | 1021 hPa | 0 mm | - | - | - |
| 1778036984 | 12.22° C | 88% | 1021 hPa | 0 mm | - | - | - |
| 1778036037 | 12.22° C | 89% | 1021 hPa | 0 mm | - | - | - |
| 1778035085 | 12.22° C | 87% | 1021 hPa | 0 mm | - | - | - |
| 1778034132 | 12.22° C | 82% | 1020 hPa | 0 mm | - | - | - |
| 1778033179 | 12.78° C | 82% | 1020 hPa | 0 mm | - | - | - |
| 1778032232 | 12.78° C | 85% | 1020 hPa | 0 mm | - | - | - |
| 1778031286 | 12.78° C | 84% | 1020 hPa | 0 mm | - | - | - |
| 1778030339 | 12.78° C | 80% | 1019 hPa | 0 mm | - | - | - |
| 1778028424 | 12.78° C | 83% | 1019 hPa | 0 mm | - | - | - |
| 1778027468 | 12.78° C | 84% | 1019 hPa | 0 mm | - | - | - |
| 1778026524 | 13.89° C | 82% | 1017 hPa | 0 mm | - | - | - |
| 1778025579 | 13.89° C | 79% | 1017 hPa | 0 mm | - | - | - |
| 1778024633 | 12.78° C | 79% | 1016 hPa | 0 mm | - | - | - |
| 1778023682 | 15° C | 73% | 1015 hPa | 0 mm | - | - | - |
| 1778022737 | 15° C | 74% | 1015 hPa | 0 mm | - | - | - |
| 1778021788 | 14.44° C | 76% | 1015 hPa | 0 mm | - | - | - |
| 1778020844 | 17.78° C | 72% | 1014 hPa | 0 mm | - | - | - |
| 1778019900 | 16.67° C | 72% | 1013 hPa | 0 mm | - | - | - |
| 1778018960 | 17.78° C | 73% | 1013 hPa | 0 mm | - | - | - |
| 1778018003 | 16.67° C | 73% | 1013 hPa | 0 mm | - | - | - |
* Rain latest hour (hover to see other rain measurements)
** Current wind speed in m/s (hover to see current wind gust speed)